N45FL KCHS-NC06

Flight info

Callsign N45FL
Flight time 1h 28m
Altitude 6500
Route CTF DCT CLT DCT BZM DCT GZG
Aircraft STAR/L-SDFGRWY/S

Departure

Time 2026-05-03 20:26
Airport Charleston International Airport (KCHS)

Arrival

Time 2026-05-03 21:54
Airport Elk River Airport (NC06)
Time Latitude Longitude Altitude Speed Heading
2026-05-03 20:15 32.89986 -80.03269 37 ft 0 kts 148°
2026-05-03 20:18 32.89973 -80.03261 37 ft 8 kts 160°
2026-05-03 20:18 32.89899 -80.03281 37 ft 8 kts 218°
2026-05-03 20:18 32.89887 -80.03293 37 ft 0 kts 216°
2026-05-03 20:19 32.89878 -80.03300 37 ft 10 kts 216°
2026-05-03 20:19 32.89811 -80.03364 36 ft 11 kts 194°
2026-05-03 20:19 32.89785 -80.03375 36 ft 5 kts 211°
2026-05-03 20:19 32.89789 -80.03454 36 ft 17 kts 311°
2026-05-03 20:20 32.89886 -80.03534 36 ft 13 kts 328°
2026-05-03 20:20 32.89959 -80.03553 36 ft 9 kts 28°
2026-05-03 20:20 32.90034 -80.03514 37 ft 13 kts 25°
2026-05-03 20:20 32.90115 -80.03469 37 ft 13 kts 21°
2026-05-03 20:21 32.90182 -80.03522 37 ft 11 kts 291°
2026-05-03 20:21 32.90210 -80.03599 39 ft 19 kts 295°
2026-05-03 20:21 32.90328 -80.03752 37 ft 22 kts 319°
2026-05-03 20:21 32.90417 -80.03846 37 ft 22 kts 318°
2026-05-03 20:22 32.90517 -80.03953 37 ft 22 kts 318°
2026-05-03 20:22 32.90607 -80.04053 37 ft 15 kts 317°
2026-05-03 20:22 32.90707 -80.04158 37 ft 14 kts 318°
2026-05-03 20:22 32.90787 -80.04243 36 ft 12 kts 315°
2026-05-03 20:23 32.90819 -80.04299 36 ft 6 kts 294°
2026-05-03 20:23 32.90831 -80.04348 37 ft 6 kts 278°
2026-05-03 20:23 32.90830 -80.04393 37 ft 5 kts 244°
2026-05-03 20:23 32.90785 -80.04404 36 ft 0 kts 143°
2026-05-03 20:25 32.90638 -80.04294 35 ft 47 kts 148°
2026-05-03 20:25 32.90239 -80.03997 36 ft 89 kts 148°
2026-05-03 20:25 32.89625 -80.03509 233 ft 113 kts 152°
2026-05-03 20:26 32.88923 -80.02958 706 ft 124 kts 151°
2026-05-03 20:26 32.88270 -80.02169 1076 ft 148 kts 122°
2026-05-03 20:26 32.87995 -80.00951 1545 ft 163 kts 95°
2026-05-03 20:26 32.87859 -79.99557 2148 ft 174 kts 99°
2026-05-03 20:27 32.87688 -79.98060 2591 ft 193 kts 99°
2026-05-03 20:27 32.87493 -79.96353 2399 ft 221 kts 97°
2026-05-03 20:27 32.87284 -79.94573 2047 ft 215 kts 97°
2026-05-03 20:27 32.87160 -79.92826 1746 ft 207 kts 83°
2026-05-03 20:28 32.87720 -79.91359 1607 ft 189 kts 44°
2026-05-03 20:28 32.88799 -79.90699 1540 ft 166 kts
2026-05-03 20:28 32.89898 -79.90627 1507 ft 155 kts 357°
2026-05-03 20:28 32.91006 -79.90649 1499 ft 163 kts 356°
2026-05-03 20:29 32.92170 -79.90717 1489 ft 171 kts 354°
2026-05-03 20:29 32.93374 -79.90802 1478 ft 177 kts 353°
2026-05-03 20:29 32.94618 -79.90897 1488 ft 180 kts 353°
2026-05-03 20:29 32.95873 -79.90996 1486 ft 181 kts 354°
2026-05-03 20:30 32.97131 -79.91093 1484 ft 181 kts 353°
2026-05-03 20:30 32.98389 -79.91185 1483 ft 181 kts 354°
2026-05-03 20:30 32.99644 -79.91282 1485 ft 181 kts 354°
2026-05-03 20:30 33.00903 -79.91385 1483 ft 182 kts 354°
2026-05-03 20:31 33.02178 -79.91481 1488 ft 184 kts 354°
2026-05-03 20:31 33.03450 -79.91577 1484 ft 182 kts 354°
2026-05-03 20:31 33.04713 -79.91680 1490 ft 182 kts 354°
2026-05-03 20:31 33.05984 -79.91790 1481 ft 184 kts 353°
2026-05-03 20:32 33.07269 -79.91891 1475 ft 185 kts 353°
2026-05-03 20:32 33.08569 -79.91996 1477 ft 187 kts 353°
2026-05-03 20:32 33.09876 -79.92104 1476 ft 187 kts 353°
2026-05-03 20:32 33.11178 -79.92210 1474 ft 197 kts 354°
2026-05-03 20:33 33.12669 -79.92347 1477 ft 230 kts 354°
2026-05-03 20:33 33.14333 -79.92511 1474 ft 249 kts 353°
2026-05-03 20:33 33.16091 -79.92675 1477 ft 253 kts 354°
2026-05-03 20:33 33.17786 -79.92832 1477 ft 243 kts 354°
2026-05-03 20:34 33.19453 -79.93000 1473 ft 237 kts 350°
2026-05-03 20:34 33.20950 -79.93715 1470 ft 232 kts 327°
2026-05-03 20:34 33.22294 -79.94772 1471 ft 231 kts 323°
2026-05-03 20:34 33.23551 -79.95956 1477 ft 230 kts 319°
2026-05-03 20:35 33.24743 -79.97227 1474 ft 230 kts 316°
2026-05-03 20:35 33.25925 -79.98534 1477 ft 233 kts 316°
2026-05-03 20:35 33.27104 -79.99859 1475 ft 231 kts 316°
2026-05-03 20:35 33.28254 -80.01192 1481 ft 230 kts 311°
2026-05-03 20:36 33.29299 -80.02647 1477 ft 232 kts 308°
2026-05-03 20:36 33.30327 -80.04156 1474 ft 236 kts 307°
2026-05-03 20:36 33.31350 -80.05700 1476 ft 237 kts 307°
2026-05-03 20:36 33.32370 -80.07252 1474 ft 237 kts 306°
2026-05-03 20:37 33.33396 -80.08798 1478 ft 238 kts 307°
2026-05-03 20:37 33.34479 -80.10303 1480 ft 241 kts 315°
2026-05-03 20:37 33.35774 -80.11578 1479 ft 242 kts 321°
2026-05-03 20:37 33.37092 -80.12736 1921 ft 223 kts 323°
2026-05-03 20:38 33.38296 -80.13759 2554 ft 203 kts 323°
2026-05-03 20:38 33.39397 -80.14668 3148 ft 188 kts 324°
2026-05-03 20:38 33.40497 -80.15390 3643 ft 178 kts 344°
2026-05-03 20:38 33.41708 -80.15616 4001 ft 179 kts 351°
2026-05-03 20:39 33.42968 -80.15767 4239 ft 186 kts 353°
2026-05-03 20:39 33.44296 -80.15895 4367 ft 198 kts 353°
2026-05-03 20:39 33.45725 -80.16022 4412 ft 213 kts 353°
2026-05-03 20:39 33.47260 -80.16157 4451 ft 229 kts 353°
2026-05-03 20:40 33.48925 -80.16301 4463 ft 249 kts 354°
2026-05-03 20:40 33.50696 -80.16459 4470 ft 261 kts 354°
2026-05-03 20:40 33.52529 -80.16626 4471 ft 265 kts 354°
2026-05-03 20:40 33.54357 -80.16791 4476 ft 262 kts 354°
2026-05-03 20:41 33.56151 -80.16955 4472 ft 251 kts 354°
2026-05-03 20:41 33.57784 -80.17093 4474 ft 221 kts 354°
2026-05-03 20:41 33.59281 -80.17140 4475 ft 216 kts
2026-05-03 20:41 33.60746 -80.16749 4474 ft 215 kts
2026-05-03 20:42 33.62236 -80.16751 4479 ft 215 kts 356°
2026-05-03 20:42 33.63745 -80.16837 4476 ft 219 kts 355°
2026-05-03 20:42 33.65263 -80.16951 4473 ft 218 kts 354°
2026-05-03 20:42 33.66762 -80.17071 4473 ft 214 kts 354°
2026-05-03 20:43 33.68237 -80.17198 4472 ft 211 kts 354°
2026-05-03 20:43 33.69685 -80.17322 4474 ft 207 kts 354°
2026-05-03 20:43 33.70634 -80.17402 4475 ft 206 kts 354°
2026-05-03 20:43 33.72058 -80.17528 4475 ft 205 kts 354°
2026-05-03 20:44 33.73470 -80.17652 4473 ft 202 kts 353°
2026-05-03 20:44 33.74866 -80.17770 4478 ft 201 kts 354°
2026-05-03 20:44 33.76260 -80.17888 4478 ft 201 kts 354°
2026-05-03 20:44 33.77649 -80.18007 4476 ft 199 kts 353°
2026-05-03 20:45 33.79029 -80.18123 4475 ft 198 kts 354°
2026-05-03 20:45 33.80399 -80.18241 4476 ft 196 kts 354°
2026-05-03 20:45 33.82203 -80.18398 4476 ft 198 kts 354°
2026-05-03 20:45 33.83143 -80.18480 4486 ft 203 kts 354°
2026-05-03 20:46 33.84581 -80.18613 4479 ft 211 kts 354°
2026-05-03 20:46 33.86056 -80.18755 4470 ft 215 kts 354°
2026-05-03 20:46 33.87557 -80.18896 4471 ft 226 kts 354°
2026-05-03 20:46 33.89248 -80.19063 4469 ft 251 kts 354°
2026-05-03 20:47 33.91007 -80.19242 4468 ft 254 kts 353°
2026-05-03 20:47 33.92768 -80.19417 4467 ft 254 kts 354°
2026-05-03 20:47 33.94507 -80.19591 4470 ft 255 kts 354°
2026-05-03 20:47 33.96281 -80.19769 4468 ft 255 kts 354°
2026-05-03 20:48 33.98056 -80.19948 4465 ft 255 kts 354°
2026-05-03 20:48 33.99823 -80.20130 4469 ft 255 kts 353°
2026-05-03 20:48 34.01513 -80.20687 4467 ft 252 kts 329°
2026-05-03 20:48 34.02948 -80.21882 4466 ft 250 kts 321°
2026-05-03 20:49 34.04329 -80.23150 4464 ft 249 kts 324°
2026-05-03 20:49 34.05849 -80.24157 4466 ft 251 kts 334°
2026-05-03 20:49 34.07481 -80.24938 4467 ft 253 kts 339°
2026-05-03 20:49 34.09161 -80.25545 4468 ft 252 kts 343°
2026-05-03 20:50 34.10867 -80.26043 4471 ft 252 kts 346°
2026-05-03 20:50 34.12586 -80.26479 4465 ft 253 kts 350°
2026-05-03 20:50 34.14335 -80.26671 4470 ft 252 kts 355°
2026-05-03 20:50 34.16090 -80.26755 4472 ft 252 kts 357°
2026-05-03 20:51 34.17843 -80.26802 4469 ft 251 kts 357°
2026-05-03 20:51 34.19590 -80.26839 4472 ft 251 kts 358°
2026-05-03 20:51 34.21334 -80.26875 4469 ft 251 kts 357°
2026-05-03 20:51 34.23083 -80.26903 4466 ft 251 kts 358°
2026-05-03 20:52 34.24826 -80.26938 4468 ft 250 kts 358°
2026-05-03 20:52 34.26567 -80.26964 4464 ft 250 kts 358°
2026-05-03 20:52 34.28306 -80.26998 4466 ft 250 kts 357°
2026-05-03 20:52 34.30042 -80.27023 4461 ft 250 kts 357°
2026-05-03 20:53 34.31786 -80.27063 4467 ft 251 kts 358°
2026-05-03 20:53 34.33537 -80.27114 4444 ft 250 kts 357°
2026-05-03 20:53 34.35251 -80.27159 4452 ft 250 kts 357°
2026-05-03 20:53 34.36988 -80.27189 4457 ft 249 kts 357°
2026-05-03 20:54 34.38720 -80.27213 4459 ft 249 kts 357°
2026-05-03 20:54 34.42204 -80.27270 4460 ft 251 kts 357°
2026-05-03 20:54 34.43952 -80.27298 4463 ft 252 kts 358°
2026-05-03 20:55 34.45706 -80.27320 4487 ft 252 kts 358°
2026-05-03 20:55 34.47453 -80.27343 4482 ft 251 kts 357°
2026-05-03 20:55 34.49195 -80.27368 4484 ft 250 kts 357°
2026-05-03 20:55 34.50939 -80.27391 4479 ft 250 kts 357°
2026-05-03 20:56 34.52671 -80.27414 4481 ft 249 kts 358°
2026-05-03 20:56 34.54402 -80.27435 4476 ft 249 kts 358°
2026-05-03 20:56 34.56140 -80.27458 4480 ft 250 kts 357°
2026-05-03 20:56 34.57881 -80.27480 4480 ft 251 kts 358°
2026-05-03 20:57 34.59625 -80.27495 4473 ft 250 kts 358°
2026-05-03 20:57 34.61360 -80.27506 4476 ft 249 kts 358°
2026-05-03 20:57 34.63089 -80.27514 4480 ft 248 kts 358°
2026-05-03 20:57 34.64814 -80.27513 4478 ft 248 kts 358°
2026-05-03 20:58 34.66548 -80.27465 4478 ft 249 kts 360°
2026-05-03 20:58 34.68279 -80.27392 4477 ft 249 kts
2026-05-03 20:58 34.70010 -80.27310 4474 ft 250 kts
2026-05-03 20:58 34.71749 -80.27225 4475 ft 251 kts
2026-05-03 20:59 34.73490 -80.27134 4473 ft 250 kts
2026-05-03 20:59 34.75227 -80.27037 4475 ft 250 kts
2026-05-03 20:59 34.76968 -80.26935 4476 ft 251 kts
2026-05-03 20:59 34.78709 -80.26934 4474 ft 249 kts 348°
2026-05-03 21:00 34.80252 -80.27799 4472 ft 245 kts 318°
2026-05-03 21:00 34.80975 -80.28830 4476 ft 241 kts 300°
2026-05-03 21:00 34.81964 -80.31251 4479 ft 238 kts 289°
2026-05-03 21:00 34.82715 -80.33037 4490 ft 239 kts 304°
2026-05-03 21:01 34.83728 -80.34654 4484 ft 240 kts 307°
2026-05-03 21:01 34.84784 -80.36227 4473 ft 239 kts 308°
2026-05-03 21:01 34.85849 -80.37780 4471 ft 240 kts 309°
2026-05-03 21:01 34.86871 -80.39387 4474 ft 240 kts 303°
2026-05-03 21:02 34.87794 -80.41070 4464 ft 239 kts 303°
2026-05-03 21:02 34.88765 -80.42712 4461 ft 239 kts 304°
2026-05-03 21:02 34.89733 -80.44359 4460 ft 239 kts 303°
2026-05-03 21:02 34.90687 -80.46030 4456 ft 241 kts 303°
2026-05-03 21:03 34.91651 -80.47677 4451 ft 232 kts 304°
2026-05-03 21:03 34.92534 -80.49188 4449 ft 212 kts 304°
2026-05-03 21:03 34.93345 -80.50597 4442 ft 194 kts 303°
2026-05-03 21:03 34.94084 -80.51874 4441 ft 176 kts 303°
2026-05-03 21:04 34.94765 -80.53048 4436 ft 163 kts 303°
2026-05-03 21:04 34.95399 -80.54144 4430 ft 153 kts 303°
2026-05-03 21:04 34.95995 -80.55172 4440 ft 146 kts 302°
2026-05-03 21:04 34.96573 -80.56168 4436 ft 141 kts 301°
2026-05-03 21:05 34.97131 -80.57131 4440 ft 137 kts 302°
2026-05-03 21:05 34.97677 -80.58071 4441 ft 135 kts 302°
2026-05-03 21:05 34.98217 -80.58999 4434 ft 134 kts 302°
2026-05-03 21:05 34.98746 -80.59921 4433 ft 130 kts 302°
2026-05-03 21:06 34.99256 -80.60820 4434 ft 128 kts 301°
2026-05-03 21:06 34.99758 -80.61705 4437 ft 127 kts 301°
2026-05-03 21:06 35.00261 -80.62590 4491 ft 127 kts 301°
2026-05-03 21:06 35.00764 -80.63487 4493 ft 129 kts 300°
2026-05-03 21:07 35.01277 -80.64405 4489 ft 133 kts 300°
2026-05-03 21:07 35.01795 -80.65344 4487 ft 132 kts 300°
2026-05-03 21:07 35.02298 -80.66275 4491 ft 131 kts 300°
2026-05-03 21:07 35.02818 -80.67196 4495 ft 136 kts 309°
2026-05-03 21:08 35.03713 -80.67652 4493 ft 146 kts 346°
2026-05-03 21:08 35.04732 -80.67835 4491 ft 149 kts 349°
2026-05-03 21:08 35.05767 -80.67969 4489 ft 149 kts 350°
2026-05-03 21:08 35.06801 -80.68075 4495 ft 148 kts 352°
2026-05-03 21:09 35.07833 -80.68179 4491 ft 148 kts 352°
2026-05-03 21:09 35.08862 -80.68280 4494 ft 148 kts 352°
2026-05-03 21:09 35.09899 -80.68381 4490 ft 150 kts 351°
2026-05-03 21:09 35.10930 -80.68481 4495 ft 148 kts 351°
2026-05-03 21:10 35.11961 -80.68584 4483 ft 147 kts 351°
2026-05-03 21:10 35.12975 -80.68682 4488 ft 145 kts 352°
2026-05-03 21:10 35.13974 -80.68777 4487 ft 143 kts 347°
2026-05-03 21:10 35.14861 -80.69330 4492 ft 155 kts 322°
2026-05-03 21:11 35.15788 -80.70120 4470 ft 170 kts 322°
2026-05-03 21:11 35.16777 -80.70992 4485 ft 179 kts 321°
2026-05-03 21:11 35.17803 -80.71902 4500 ft 185 kts 321°
2026-05-03 21:11 35.18864 -80.72836 4508 ft 191 kts 323°
2026-05-03 21:12 35.20019 -80.73692 4505 ft 197 kts 327°
2026-05-03 21:12 35.21224 -80.74548 4505 ft 203 kts 326°
2026-05-03 21:12 35.22450 -80.75491 4506 ft 213 kts 326°
2026-05-03 21:12 35.23740 -80.76459 4508 ft 222 kts 326°
2026-05-03 21:13 35.25084 -80.77449 4507 ft 231 kts 326°
2026-05-03 21:13 35.26494 -80.78512 4545 ft 244 kts 326°
2026-05-03 21:13 35.27969 -80.79615 4546 ft 252 kts 327°
2026-05-03 21:13 35.29485 -80.80742 4541 ft 256 kts 326°
2026-05-03 21:14 35.31010 -80.81887 4541 ft 258 kts 326°
2026-05-03 21:14 35.32552 -80.83046 4542 ft 261 kts 327°
2026-05-03 21:14 35.34090 -80.84188 4542 ft 256 kts 326°
2026-05-03 21:14 35.35597 -80.85320 4544 ft 252 kts 326°
2026-05-03 21:15 35.37060 -80.86424 4541 ft 242 kts 326°
2026-05-03 21:15 35.38476 -80.87479 4540 ft 234 kts 326°
2026-05-03 21:15 35.39844 -80.88504 4541 ft 227 kts 326°
2026-05-03 21:15 35.41140 -80.89478 4544 ft 215 kts 326°
2026-05-03 21:16 35.42391 -80.90423 4543 ft 207 kts 326°
2026-05-03 21:16 35.43607 -80.91334 4534 ft 203 kts 326°
2026-05-03 21:16 35.44804 -80.92228 4531 ft 201 kts 326°
2026-05-03 21:16 35.46009 -80.93142 4503 ft 205 kts 325°
2026-05-03 21:17 35.47239 -80.94065 4504 ft 209 kts 326°
2026-05-03 21:17 35.48081 -80.94694 4502 ft 211 kts 326°
2026-05-03 21:17 35.49747 -80.95949 4501 ft 213 kts 326°
2026-05-03 21:17 35.51019 -80.96903 4502 ft 216 kts 326°
2026-05-03 21:18 35.52310 -80.97878 4504 ft 220 kts 326°
2026-05-03 21:18 35.53620 -80.98870 4497 ft 222 kts 326°
2026-05-03 21:18 35.54943 -80.99862 4498 ft 225 kts 326°
2026-05-03 21:18 35.56281 -81.00868 4497 ft 226 kts 326°
2026-05-03 21:19 35.57620 -81.01883 4502 ft 227 kts 326°
2026-05-03 21:19 35.58976 -81.02906 4498 ft 229 kts 326°
2026-05-03 21:19 35.60338 -81.03930 4500 ft 230 kts 326°
2026-05-03 21:19 35.61703 -81.04960 4497 ft 230 kts 326°
2026-05-03 21:20 35.63071 -81.05999 4497 ft 231 kts 326°
2026-05-03 21:20 35.64445 -81.07034 4490 ft 232 kts 326°
2026-05-03 21:20 35.65820 -81.08073 4491 ft 232 kts 326°
2026-05-03 21:20 35.67197 -81.09112 4491 ft 232 kts 326°
2026-05-03 21:21 35.68573 -81.10159 4496 ft 232 kts 326°
2026-05-03 21:21 35.69948 -81.11200 4495 ft 232 kts 326°
2026-05-03 21:21 35.71335 -81.12248 4495 ft 234 kts 326°
2026-05-03 21:21 35.72726 -81.13298 4493 ft 234 kts 326°
2026-05-03 21:22 35.74108 -81.14349 4493 ft 233 kts 326°
2026-05-03 21:22 35.75491 -81.15402 4490 ft 234 kts 326°
2026-05-03 21:22 35.76860 -81.16433 4492 ft 234 kts 326°
2026-05-03 21:22 35.78251 -81.17484 4479 ft 235 kts 325°
2026-05-03 21:23 35.79642 -81.18551 4478 ft 235 kts 325°
2026-05-03 21:23 35.81034 -81.19610 4477 ft 235 kts 326°
2026-05-03 21:23 35.82424 -81.20655 4476 ft 234 kts 326°
2026-05-03 21:23 35.83804 -81.21704 4475 ft 233 kts 326°
2026-05-03 21:24 35.85176 -81.22757 4480 ft 233 kts 326°
2026-05-03 21:24 35.86563 -81.23806 4467 ft 234 kts 326°
2026-05-03 21:24 35.87914 -81.24905 4469 ft 232 kts 321°
2026-05-03 21:24 35.89217 -81.26087 4465 ft 232 kts 322°
2026-05-03 21:25 35.90546 -81.27220 4470 ft 232 kts 323°
2026-05-03 21:25 35.91779 -81.28491 4468 ft 230 kts 307°
2026-05-03 21:25 35.92812 -81.29976 4471 ft 228 kts 320°
2026-05-03 21:25 35.94194 -81.30959 4472 ft 229 kts 331°
2026-05-03 21:26 35.95624 -81.31832 4475 ft 229 kts 332°
2026-05-03 21:26 35.97049 -81.32712 4476 ft 229 kts 331°
2026-05-03 21:26 35.98461 -81.33619 4478 ft 228 kts 329°
2026-05-03 21:26 35.99855 -81.34541 4479 ft 227 kts 328°
2026-05-03 21:27 36.01222 -81.35514 4479 ft 226 kts 324°
2026-05-03 21:27 36.02513 -81.36610 4480 ft 225 kts 323°
2026-05-03 21:27 36.03817 -81.37644 4481 ft 226 kts 325°
2026-05-03 21:27 36.05140 -81.38683 4483 ft 225 kts 324°
2026-05-03 21:28 36.06449 -81.39748 4482 ft 225 kts 324°
2026-05-03 21:28 36.07760 -81.40808 4483 ft 226 kts 325°
2026-05-03 21:28 36.09080 -81.41854 4484 ft 226 kts 325°
2026-05-03 21:28 36.10395 -81.42916 4483 ft 226 kts 324°
2026-05-03 21:29 36.11722 -81.43990 4479 ft 229 kts 325°
2026-05-03 21:29 36.13055 -81.45058 4478 ft 228 kts 325°
2026-05-03 21:29 36.14381 -81.46127 4481 ft 226 kts 324°
2026-05-03 21:29 36.15696 -81.47187 4489 ft 225 kts 324°
2026-05-03 21:30 36.16560 -81.47893 4476 ft 223 kts 321°
2026-05-03 21:30 36.17476 -81.49344 4516 ft 217 kts 296°
2026-05-03 21:30 36.18571 -81.50596 4540 ft 220 kts 326°
2026-05-03 21:30 36.19904 -81.51627 4406 ft 228 kts 325°
2026-05-03 21:31 36.21218 -81.52709 4414 ft 227 kts 322°
2026-05-03 21:31 36.22308 -81.54021 4654 ft 215 kts 304°
2026-05-03 21:31 36.23138 -81.55557 4706 ft 215 kts 296°
2026-05-03 21:31 36.23306 -81.57343 4660 ft 215 kts 262°
2026-05-03 21:32 36.23242 -81.59196 4720 ft 214 kts 269°
2026-05-03 21:32 36.22953 -81.61006 4678 ft 218 kts 256°
2026-05-03 21:32 36.22555 -81.62803 4774 ft 218 kts 254°
2026-05-03 21:32 36.22224 -81.64633 4844 ft 218 kts 267°
2026-05-03 21:33 36.22150 -81.66529 4823 ft 224 kts 259°
2026-05-03 21:33 36.22030 -81.68427 4755 ft 226 kts 282°
2026-05-03 21:33 36.22430 -81.70316 4702 ft 229 kts 276°
2026-05-03 21:33 36.22774 -81.72231 4721 ft 228 kts 295°
2026-05-03 21:34 36.23536 -81.73955 4725 ft 224 kts 295°
2026-05-03 21:34 36.24365 -81.75565 4789 ft 224 kts 311°
2026-05-03 21:34 36.25675 -81.76542 4893 ft 224 kts 341°
2026-05-03 21:34 36.27240 -81.76443 4779 ft 239 kts 17°
2026-05-03 21:35 36.28808 -81.75653 4624 ft 243 kts 13°
2026-05-03 21:35 36.30397 -81.75195 4750 ft 233 kts
2026-05-03 21:35 36.31985 -81.74845 4977 ft 221 kts
2026-05-03 21:35 36.33466 -81.74591 5084 ft 222 kts
2026-05-03 21:36 36.35015 -81.74500 5227 ft 215 kts 351°
2026-05-03 21:36 36.36498 -81.74756 5263 ft 219 kts 344°
2026-05-03 21:36 36.37902 -81.75376 5345 ft 215 kts 332°
2026-05-03 21:36 36.39330 -81.76189 5265 ft 239 kts 332°
2026-05-03 21:37 36.40886 -81.77048 5382 ft 253 kts 335°
2026-05-03 21:37 36.42562 -81.77779 5541 ft 258 kts 338°
2026-05-03 21:37 36.44256 -81.78315 5173 ft 261 kts 20°
2026-05-03 21:37 36.45872 -81.77648 4983 ft 233 kts
2026-05-03 21:38 36.47354 -81.77175 5468 ft 218 kts 23°
2026-05-03 21:38 36.49058 -81.76922 4887 ft 250 kts
2026-05-03 21:38 36.50534 -81.77233 5378 ft 201 kts 328°
2026-05-03 21:38 36.51679 -81.78180 5095 ft 203 kts 305°
2026-05-03 21:39 36.51977 -81.79824 5142 ft 199 kts 255°
2026-05-03 21:39 36.50975 -81.80955 5086 ft 206 kts 203°
2026-05-03 21:39 36.49599 -81.81606 4774 ft 218 kts 208°
2026-05-03 21:39 36.48381 -81.82851 4302 ft 233 kts 231°
2026-05-03 21:40 36.47362 -81.84349 4461 ft 222 kts 230°
2026-05-03 21:40 36.46356 -81.85705 4680 ft 207 kts 229°
2026-05-03 21:40 36.45349 -81.87022 4749 ft 220 kts 229°
2026-05-03 21:40 36.44297 -81.88492 4833 ft 235 kts 233°
2026-05-03 21:41 36.43273 -81.90077 5100 ft 241 kts 233°
2026-05-03 21:41 36.42165 -81.91727 4994 ft 255 kts 231°
2026-05-03 21:41 36.40987 -81.93423 4696 ft 262 kts 231°
2026-05-03 21:41 36.39843 -81.95057 4794 ft 242 kts 230°
2026-05-03 21:42 36.38809 -81.96618 4909 ft 226 kts 233°
2026-05-03 21:42 36.37857 -81.98117 4956 ft 213 kts 237°
2026-05-03 21:42 36.37068 -81.99634 5042 ft 217 kts 236°
2026-05-03 21:42 36.36077 -82.01254 4782 ft 249 kts 229°
2026-05-03 21:43 36.34423 -82.02125 3559 ft 285 kts 178°
2026-05-03 21:43 36.32622 -82.01643 3651 ft 252 kts 170°
2026-05-03 21:43 36.30998 -82.01052 3671 ft 241 kts 153°
2026-05-03 21:43 36.29657 -82.00373 4488 ft 184 kts 180°
2026-05-03 21:44 36.28403 -81.99966 4098 ft 202 kts 154°
2026-05-03 21:44 36.27158 -81.99165 3862 ft 198 kts 155°
2026-05-03 21:44 36.25979 -81.98397 3759 ft 185 kts 154°
2026-05-03 21:44 36.24937 -81.97662 3959 ft 158 kts 152°
2026-05-03 21:45 36.23936 -81.97067 4142 ft 172 kts 167°
2026-05-03 21:45 36.22587 -81.97118 4163 ft 221 kts 186°
2026-05-03 21:45 36.20939 -81.96894 4320 ft 247 kts 171°
2026-05-03 21:45 36.19321 -81.96048 4329 ft 258 kts 150°
2026-05-03 21:46 36.18101 -81.94616 4764 ft 229 kts 120°
2026-05-03 21:46 36.17220 -81.93186 4948 ft 197 kts 130°
2026-05-03 21:46 36.16789 -81.91571 4369 ft 211 kts 99°
2026-05-03 21:46 36.16190 -81.89860 3677 ft 228 kts 121°
2026-05-03 21:47 36.15538 -81.88144 4162 ft 199 kts 111°
2026-05-03 21:47 36.15390 -81.86649 4861 ft 163 kts 64°
2026-05-03 21:47 36.16231 -81.85587 5037 ft 197 kts 34°
2026-05-03 21:47 36.17495 -81.84752 5219 ft 216 kts
2026-05-03 21:48 36.18836 -81.85028 5610 ft 188 kts 322°
2026-05-03 21:48 36.19805 -81.86109 5512 ft 188 kts 312°
2026-05-03 21:48 36.20598 -81.87390 5366 ft 186 kts 303°
2026-05-03 21:48 36.21394 -81.88509 4938 ft 156 kts 309°
2026-05-03 21:49 36.22061 -81.89400 4607 ft 128 kts 311°
2026-05-03 21:49 36.22297 -81.90293 4398 ft 108 kts 263°
2026-05-03 21:49 36.22342 -81.91230 4431 ft 115 kts 278°
2026-05-03 21:49 36.22356 -81.92273 4464 ft 125 kts 268°
2026-05-03 21:50 36.22394 -81.93375 4524 ft 130 kts 280°
2026-05-03 21:50 36.22515 -81.94527 4546 ft 140 kts 270°
2026-05-03 21:50 36.22327 -81.95727 4525 ft 148 kts 246°
2026-05-03 21:50 36.21541 -81.96444 4295 ft 140 kts 197°
2026-05-03 21:51 36.20590 -81.96598 3947 ft 136 kts 188°
2026-05-03 21:51 36.19664 -81.96702 3778 ft 130 kts 185°
2026-05-03 21:51 36.18829 -81.96363 3681 ft 127 kts 151°
2026-05-03 21:51 36.18015 -81.96213 3606 ft 130 kts 192°
2026-05-03 21:52 36.17099 -81.96170 3917 ft 132 kts 166°
2026-05-03 21:52 36.16845 -81.95295 4071 ft 142 kts 66°
2026-05-03 21:52 36.17230 -81.94069 3937 ft 154 kts 65°
2026-05-03 21:52 36.17546 -81.92930 3750 ft 129 kts 74°
2026-05-03 21:53 36.17460 -81.91940 3727 ft 122 kts 120°
2026-05-03 21:53 36.16876 -81.91017 3633 ft 136 kts 133°
2026-05-03 21:53 36.16354 -81.90150 3465 ft 116 kts 117°
2026-05-03 21:53 36.16015 -81.89389 3449 ft 78 kts 120°
2026-05-03 21:54 36.15854 -81.89025 3458 ft 34 kts 117°
2026-05-03 21:54 36.15783 -81.88862 3475 ft 9 kts 115°
2026-05-03 21:54 36.15777 -81.88804 3479 ft 11 kts 44°
2026-05-03 21:54 36.15801 -81.88792 3479 ft 1 kts
2026-05-03 21:55 36.15812 -81.88797 3477 ft 0 kts 311°
2026-05-03 21:55 36.15811 -81.88809 3479 ft 0 kts 239°
2026-05-03 21:55 36.15809 -81.88814 3479 ft 2 kts 243°
2026-05-03 21:55 36.15817 -81.88833 3470 ft 5 kts
2026-05-03 21:56 36.15849 -81.88806 3459 ft 0 kts 36°
2026-05-03 21:57 36.15850 -81.88806 3459 ft 0 kts 36°
2026-05-03 21:57 36.15850 -81.88805 3459 ft 0 kts 31°
2026-05-03 21:58 36.15851 -81.88805 3459 ft 0 kts 30°
2026-05-03 21:59 36.15883 -81.88975 3444 ft 0 kts 26°
2026-05-03 22:00 36.15885 -81.88973 3444 ft 5 kts 44°
2026-05-03 22:00 36.15887 -81.88953 3444 ft 0 kts 98°
2026-05-03 22:00 36.15887 -81.88952 3444 ft 0 kts 97°